Weather History for Dublin, VA

Change the Weather History Date:

Monday, June 17, 2013

  Actual Average (KBCB) Record (KBCB)
Temperature  
Mean Temperature 73 °F 68 °F  
Max Temperature 82 °F 80 °F 88 °F (1957)
Min Temperature 64 °F 57 °F 40 °F (1974)
Degree Days  
Heating Degree Days 0 1  
Month to date heating degree days 32  
Since 1 June heating degree days 32  
Since 1 July heating degree days 5440  
Cooling Degree Days 8 4  
Month to date cooling degree days 51  
Year to date cooling degree days 80  
Since 1 June cooling degree days 51  
Growing Degree Days 23 (Base 50)    
Moisture  
Dew Point 67 °F    
Average Humidity 85    
Maximum Humidity 100    
Minimum Humidity 54    
Precipitation  
Precipitation 0.00 in 0.14 in 3.80 in (1976)
Month to date precipitation 2.43  
Year to date precipitation 19.77  
Snow  
Snow 0.00 in - - ()
Month to date snowfall  
Since 1 June snowfall  
Since 1 July snowfall  
Snow Depth -    
Sea Level Pressure  
Sea Level Pressure 30.07 in    
Wind  
Wind Speed 2 mph (SW)    
Max Wind Speed 8 mph    
Max Gust Speed -    
Visibility 9 miles    
Events Rain    
T = Trace of Precipitation, MM = Missing Value Source: NWS Daily Summary

Daily Weather History Graph

Daily Weather History Graph

Search for Another Location

Airport:

Trip Planner

Search our weather history database for the weather conditions in past years. The results will help you decide how hot, cold, wet, or windy it might be!

Date:

Astronomy

Jun. 17, 2013 Rise Set
Actual Time 6:02 AM EDT 8:45 PM EDT
Civil Twilight 5:31 AM EDT 9:16 PM EDT
Nautical Twilight 4:52 AM EDT 9:54 PM EDT
Astronomical Twilight 4:09 AM EDT 10:38 PM EDT
Moon 2:28 PM EDT (6/17) 1:29 AM EDT (6/17)
Length of Visible Light 15h 44m
Length of Day
14h 42m
First Quarter, 60% of the Moon is Illuminated
Jun 17
First Quarter
Jun 23
Full
Jun 30
Last Quarter
Jul 8
New
Jul 15
First Quarter

Hourly Weather History & Observations

Time (EDT) Temp. Heat Index Dew Point Humidity Pressure Visibility Wind Dir Wind Speed Gust Speed Precip Events Conditions
12:15 AM 66.2 °F - 66.2 °F 100% 30.13 in 7.0 mi Calm Calm - N/A Rain Light Rain
12:35 AM 66.2 °F - 66.2 °F 100% 30.12 in 10.0 mi Calm Calm - N/A Rain Rain
12:55 AM 66.2 °F - 66.2 °F 100% 30.12 in 5.0 mi Calm Calm - N/A   Light Drizzle
1:15 AM 66.2 °F - 66.2 °F 100% 30.11 in 5.0 mi Calm Calm - N/A Rain Light Rain
1:35 AM 66.2 °F - 66.2 °F 100% 30.11 in 4.0 mi Calm Calm - N/A Rain Light Rain
1:55 AM 66.2 °F - 66.2 °F 100% 30.11 in 5.0 mi Calm Calm - N/A   Mostly Cloudy
2:15 AM 66.2 °F - 66.2 °F 100% 30.11 in 7.0 mi Calm Calm - N/A Rain Light Rain
2:35 AM 66.2 °F - 66.2 °F 100% 30.11 in 7.0 mi Calm Calm - N/A Rain Light Rain
2:55 AM 66.2 °F - 66.2 °F 100% 30.10 in 7.0 mi Calm Calm - N/A Rain Light Rain
3:15 AM 66.2 °F - 66.2 °F 100% 30.10 in 7.0 mi Calm Calm - N/A Rain Light Rain
3:35 AM 66.2 °F - 66.2 °F 100% 30.10 in 5.0 mi Calm Calm - N/A Rain Light Rain
3:55 AM 66.2 °F - 66.2 °F 100% 30.09 in 5.0 mi Calm Calm - N/A   Scattered Clouds
4:15 AM 66.2 °F - 66.2 °F 100% 30.09 in 5.0 mi Calm Calm - N/A   Scattered Clouds
4:35 AM 66.2 °F - 66.2 °F 100% 30.11 in 3.0 mi WNW 4.6 mph - N/A Rain Rain
4:55 AM 66.2 °F - 66.2 °F 100% 30.11 in 5.0 mi Calm Calm - N/A Rain Light Rain
5:15 AM 66.2 °F - 66.2 °F 100% 30.10 in 10.0 mi West 4.6 mph - N/A   Mostly Cloudy
5:35 AM 66.2 °F - 66.2 °F 100% 30.10 in 10.0 mi WSW 4.6 mph - N/A   Scattered Clouds
5:55 AM 64.4 °F - 64.4 °F 100% 30.10 in 10.0 mi Calm Calm - N/A   Clear
6:15 AM 66.2 °F - 66.2 °F 100% 30.09 in 10.0 mi West 3.5 mph - N/A   Clear
6:35 AM 66.2 °F - 66.2 °F 100% 30.10 in 10.0 mi SW 3.5 mph - N/A   Clear
6:55 AM 66.2 °F - 66.2 °F 100% 30.10 in 10.0 mi Calm Calm - N/A   Scattered Clouds
7:15 AM 66.2 °F - 66.2 °F 100% 30.10 in 7.0 mi SSW 3.5 mph - N/A   Scattered Clouds
7:35 AM 66.2 °F - 66.2 °F 100% 30.10 in 4.0 mi Calm Calm - N/A   Mostly Cloudy
7:55 AM 68.0 °F - 68.0 °F 100% 30.11 in 5.0 mi Calm Calm - N/A   Mostly Cloudy
8:15 AM 69.8 °F - 69.8 °F 100% 30.11 in 7.0 mi SW 3.5 mph - N/A   Mostly Cloudy
8:35 AM 69.8 °F - 69.8 °F 100% 30.11 in 7.0 mi SW 3.5 mph - N/A   Mostly Cloudy
8:55 AM 71.6 °F - 68.0 °F 88% 30.11 in 10.0 mi Calm Calm - N/A   Mostly Cloudy
9:15 AM 71.6 °F - 68.0 °F 88% 30.11 in 10.0 mi Calm Calm - N/A   Scattered Clouds
9:35 AM 73.4 °F - 68.0 °F 83% 30.10 in 10.0 mi SW 3.5 mph - N/A   Clear
9:55 AM 73.4 °F - 68.0 °F 83% 30.10 in 10.0 mi Calm Calm - N/A   Clear
10:15 AM 75.2 °F - 69.8 °F 83% 30.10 in 10.0 mi Calm Calm - N/A   Scattered Clouds
10:35 AM 75.2 °F - 69.8 °F 83% 30.10 in 10.0 mi Calm Calm - N/A   Mostly Cloudy
10:55 AM 75.2 °F - 69.8 °F 83% 30.10 in 10.0 mi WSW 3.5 mph - N/A   Scattered Clouds
11:15 AM 78.8 °F - 66.2 °F 65% 30.10 in 10.0 mi Calm Calm - N/A   Scattered Clouds
11:35 AM 78.8 °F - 66.2 °F 65% 30.10 in 10.0 mi West 6.9 mph - N/A   Scattered Clouds
11:55 AM 78.8 °F - 66.2 °F 65% 30.10 in 10.0 mi West 3.5 mph - N/A   Scattered Clouds
12:15 PM 80.6 °F 82.7 °F 66.2 °F 61% 30.09 in 10.0 mi WNW 5.8 mph - N/A   Scattered Clouds
12:35 PM 80.6 °F 82.3 °F 64.4 °F 58% 30.08 in 10.0 mi West 4.6 mph - N/A   Clear
12:55 PM 82.4 °F 83.9 °F 64.4 °F 54% 30.08 in 10.0 mi WSW 8.1 mph - N/A   Clear
1:15 PM 80.6 °F 82.3 °F 64.4 °F 58% 30.07 in 10.0 mi Calm Calm - N/A   Scattered Clouds
1:35 PM 82.4 °F 83.9 °F 64.4 °F 54% 30.08 in 10.0 mi NW 3.5 mph - N/A   Scattered Clouds
1:55 PM 82.4 °F 83.9 °F 64.4 °F 54% 30.08 in 10.0 mi Calm Calm - N/A   Scattered Clouds
2:15 PM 80.6 °F 82.7 °F 66.2 °F 61% 30.07 in 10.0 mi East 3.5 mph - N/A   Scattered Clouds
2:35 PM 82.4 °F 84.6 °F 66.2 °F 58% 30.06 in 10.0 mi NNW 3.5 mph - N/A   Clear
2:55 PM 82.4 °F 84.6 °F 66.2 °F 58% 30.05 in 10.0 mi Calm Calm - N/A   Clear
3:15 PM 82.4 °F 83.9 °F 64.4 °F 54% 30.05 in 10.0 mi Calm Calm - N/A   Clear
3:35 PM 82.4 °F 84.6 °F 66.2 °F 58% 30.05 in 10.0 mi NNE 4.6 mph - N/A   Clear
3:55 PM 82.4 °F 84.6 °F 66.2 °F 58% 30.04 in 10.0 mi Calm Calm - N/A   Clear
4:15 PM 80.6 °F 82.7 °F 66.2 °F 61% 30.03 in 10.0 mi South 5.8 mph - N/A   Scattered Clouds
4:35 PM 78.8 °F - 66.2 °F 65% 30.02 in 10.0 mi South 8.1 mph - N/A   Scattered Clouds
4:55 PM 78.8 °F - 68.0 °F 69% 30.02 in 10.0 mi South 6.9 mph - N/A   Scattered Clouds
5:15 PM 78.8 °F - 66.2 °F 65% 30.02 in 10.0 mi South 6.9 mph - N/A   Clear
5:35 PM 78.8 °F - 66.2 °F 65% 30.02 in 10.0 mi South 4.6 mph - N/A   Clear
5:55 PM 77.0 °F - 71.6 °F 83% 30.02 in 10.0 mi SSW 6.9 mph - N/A Rain Light Rain
6:15 PM 77.0 °F - 71.6 °F 83% 30.02 in 10.0 mi SW 5.8 mph - N/A   Clear
6:35 PM 77.0 °F - 71.6 °F 83% 30.02 in 10.0 mi SW 8.1 mph - N/A   Clear
6:55 PM 75.2 °F - 69.8 °F 83% 30.03 in 10.0 mi SSW 6.9 mph - N/A   Clear
7:15 PM 73.4 °F - 66.2 °F 78% 30.03 in 10.0 mi SSW 6.9 mph - N/A   Clear
7:35 PM 73.4 °F - 66.2 °F 78% 30.03 in 10.0 mi Calm Calm - N/A   Clear
7:55 PM 71.6 °F - 68.0 °F 88% 30.02 in 10.0 mi SW 5.8 mph - N/A   Clear
8:15 PM 71.6 °F - 68.0 °F 88% 30.03 in 10.0 mi West 3.5 mph - N/A   Clear
8:35 PM 71.6 °F - 68.0 °F 88% 30.03 in 10.0 mi SSE 3.5 mph - N/A   Clear
8:55 PM 69.8 °F - 68.0 °F 94% 30.03 in 10.0 mi SSW 3.5 mph - N/A   Clear
9:15 PM 69.8 °F - 66.2 °F 88% 30.04 in 10.0 mi Calm Calm - N/A   Clear
9:35 PM 69.8 °F - 66.2 °F 88% 30.04 in 10.0 mi Calm Calm - N/A   Clear
9:55 PM 69.8 °F - 66.2 °F 88% 30.04 in 10.0 mi Calm Calm - N/A   Clear
10:15 PM 68.0 °F - 66.2 °F 94% 30.05 in 10.0 mi Calm Calm - N/A   Clear
10:35 PM 66.2 °F - 66.2 °F 100% 30.05 in 10.0 mi South 4.6 mph - N/A   Clear
10:55 PM 66.2 °F - 66.2 °F 100% 30.04 in 10.0 mi Calm Calm - N/A   Clear
11:15 PM 66.2 °F - 66.2 °F 100% 30.05 in 10.0 mi Calm Calm - N/A   Clear
11:35 PM 66.2 °F - 66.2 °F 100% 30.04 in 10.0 mi Calm Calm - N/A   Clear
11:55 PM 66.2 °F - 66.2 °F 100% 30.05 in 10.0 mi Calm Calm - N/A   Scattered Clouds